sat.trackr.live / text

‹ back to catalog

STARLINK-31053

NORAD 58549 · 2023-192U

PAYLOAD ACTIVE UNKNOWN

§ Identity

Operator
Country
US
Launch date
2023-12-08
Launch site
AFWTR
Launch vehicle
Mass (kg)
RCS (m²)

Purposes: comms

External: N2YO · Heavens-Above · Gunter

§ Orbital elements

Epoch: 2026-05-25T02:33:50.798880Z

Period
93.85 min
Inclination
53.1599°
Eccentricity
0.0001061
Mean motion
15.34385468 rev/d
Perigee alt
462.0 km
Apogee alt
463.5 km
Semi-major
6,840.9 km
B*
1.9925e-4
RAAN
67.1935°
Arg perigee
68.8975°
Mean anomaly
291.2140°
Rev number
13,769

§ Raw data

STARLINK-310531 58549U 23192U   26145.10683795  .00006359  00000+0  19925-3 0  99962 58549  53.1599  67.1935 0001061  68.8975 291.2140 15.34385468137699

JSON: /api/v1/satellites/58549 · /tle

For live sub-satellite position, see the globe view (requires WebGL).

§ Visibility from observer

Set your observer location to see the next 7 days of passes ≥ 10°. The values pass through the URL so the page stays shareable.

No JS? Fill the form by hand. The geolocation button needs JavaScript.